******** Week 363 almanac for PRN-1 ******** ID: 1 Health: 0 Eccentricity: 0.00164270401 Time of Applicability(s): 233472 Orbital Inclination(rad): 0.9579973673 Rate of Right Ascen(r/s): -8.148910863e-09 SQRT(A) (m 1/2): 5153.570801 Right Ascen at Week(rad): 2.760814132 Argument of Perigee(rad): 0.1199193976 Mean Anom(rad): 1.352165116 Af0(s): 0.0002464515015 Af1(s/s): -7.275958e-12 week: 363 ******** Week 363 almanac for PRN-2 ******** ID: 2 Health: 0 Eccentricity: 0.01686048508 Time of Applicability(s): 233472 Orbital Inclination(rad): 0.9631326077 Rate of Right Ascen(r/s): -8.034620388e-09 SQRT(A) (m 1/2): 5153.535645 Right Ascen at Week(rad): 2.598408784 Argument of Perigee(rad): -0.7993938659 Mean Anom(rad): 2.842132341 Af0(s): 5.124985352e-05 Af1(s/s): 7.275958e-12 week: 363 ******** Week 363 almanac for PRN-3 ******** ID: 3 Health: 0 Eccentricity: 0.006583213806 Time of Applicability(s): 233472 Orbital Inclination(rad): 0.993734326 Rate of Right Ascen(r/s): -7.646032773e-09 SQRT(A) (m 1/2): 5153.57666 Right Ascen at Week(rad): -2.534959055 Argument of Perigee(rad): 1.202616221 Mean Anom(rad): -0.7459685657 Af0(s): 0.0004175355713 Af1(s/s): -1.455192e-11 week: 363 ******** Week 363 almanac for PRN-4 ******** ID: 4 Health: 0 Eccentricity: 0.003714084625 Time of Applicability(s): 233472 Orbital Inclination(rad): 0.9705328666 Rate of Right Ascen(r/s): -7.680319916e-09 SQRT(A) (m 1/2): 5153.675293 Right Ascen at Week(rad): -1.464754662 Argument of Perigee(rad): -2.873545241 Mean Anom(rad): 2.216575649 Af0(s): 3.994473877e-05 Af1(s/s): 0 week: 363 ******** Week 363 almanac for PRN-5 ******** ID: 5 Health: 0 Eccentricity: 0.005436897278 Time of Applicability(s): 233472 Orbital Inclination(rad): 0.9802820335 Rate of Right Ascen(r/s): -7.783181343e-09 SQRT(A) (m 1/2): 5153.674316 Right Ascen at Week(rad): -2.594970061 Argument of Perigee(rad): 1.416247014 Mean Anom(rad): 2.887734938 Af0(s): -0.0001823891846 Af1(s/s): 0 week: 363 ******** Week 363 almanac for PRN-6 ******** ID: 6 Health: 0 Eccentricity: 0.003829479218 Time of Applicability(s): 233472 Orbital Inclination(rad): 0.9868254203 Rate of Right Ascen(r/s): -7.874613723e-09 SQRT(A) (m 1/2): 5153.604492 Right Ascen at Week(rad): 2.711964184 Argument of Perigee(rad): -0.5498212586 Mean Anom(rad): 0.5542767687 Af0(s): -0.0004838589111 Af1(s/s): 0 week: 363 ******** Week 363 almanac for PRN-7 ******** ID: 7 Health: 0 Eccentricity: 0.0206246376 Time of Applicability(s): 233472 Orbital Inclination(rad): 0.9511483828 Rate of Right Ascen(r/s): -7.897471818e-09 SQRT(A) (m 1/2): 5153.555664 Right Ascen at Week(rad): -0.4560117421 Argument of Perigee(rad): -1.984756173 Mean Anom(rad): -0.2957916432 Af0(s): -0.0001303856567 Af1(s/s): -3.637979e-12 week: 363 ******** Week 363 almanac for PRN-8 ******** ID: 8 Health: 0 Eccentricity: 0.01158857346 Time of Applicability(s): 233472 Orbital Inclination(rad): 0.9429931177 Rate of Right Ascen(r/s): -8.046049436e-09 SQRT(A) (m 1/2): 5153.64502 Right Ascen at Week(rad): 1.590538465 Argument of Perigee(rad): 0.5322658671 Mean Anom(rad): 2.521100796 Af0(s): 0.0003738224609 Af1(s/s): -7.275958e-12 week: 363 ******** Week 363 almanac for PRN-9 ******** ID: 9 Health: 0 Eccentricity: 0.00334405899 Time of Applicability(s): 233472 Orbital Inclination(rad): 0.9647265096 Rate of Right Ascen(r/s): -7.760323248e-09 SQRT(A) (m 1/2): 5153.716309 Right Ascen at Week(rad): -1.529170246 Argument of Perigee(rad): 2.057076477 Mean Anom(rad): 3.120576818 Af0(s): 0.0006044468018 Af1(s/s): -3.637979e-12 week: 363 ******** Week 363 almanac for PRN-10 ******** ID: 10 Health: 0 Eccentricity: 0.01093006134 Time of Applicability(s): 233472 Orbital Inclination(rad): 0.9932669412 Rate of Right Ascen(r/s): -7.611745631e-09 SQRT(A) (m 1/2): 5153.611328 Right Ascen at Week(rad): -2.537467128 Argument of Perigee(rad): -2.255100064 Mean Anom(rad): -1.741063326 Af0(s): -0.0004665244019 Af1(s/s): 0 week: 363 ******** Week 363 almanac for PRN-11 ******** ID: 11 Health: 0 Eccentricity: 0.002216339111 Time of Applicability(s): 233472 Orbital Inclination(rad): 0.9637078505 Rate of Right Ascen(r/s): -8.103194673e-09 SQRT(A) (m 1/2): 5153.536133 Right Ascen at Week(rad): 2.730269339 Argument of Perigee(rad): -2.311495579 Mean Anom(rad): 1.674946358 Af0(s): -0.0003135285156 Af1(s/s): 1.455192e-11 week: 363 ******** Week 363 almanac for PRN-12 ******** ID: 12 Health: 0 Eccentricity: 0.008972167969 Time of Applicability(s): 233472 Orbital Inclination(rad): 0.9592916636 Rate of Right Ascen(r/s): -7.737465153e-09 SQRT(A) (m 1/2): 5153.708984 Right Ascen at Week(rad): 0.6615486894 Argument of Perigee(rad): 1.567526132 Mean Anom(rad): -0.9782539286 Af0(s): -0.0004808442139 Af1(s/s): 0 week: 363 ******** Week 363 almanac for PRN-13 ******** ID: 13 Health: 0 Eccentricity: 0.01006555557 Time of Applicability(s): 233472 Orbital Inclination(rad): 0.9761235075 Rate of Right Ascen(r/s): -7.657461821e-09 SQRT(A) (m 1/2): 5153.623535 Right Ascen at Week(rad): -1.35372007 Argument of Perigee(rad): 0.9940963249 Mean Anom(rad): 2.286226841 Af0(s): 0.0005388771362 Af1(s/s): 0 week: 363 ******** Week 363 almanac for PRN-14 ******** ID: 14 Health: 0 Eccentricity: 0.006844043732 Time of Applicability(s): 233472 Orbital Inclination(rad): 0.9426515673 Rate of Right Ascen(r/s): -7.897471818e-09 SQRT(A) (m 1/2): 5153.599121 Right Ascen at Week(rad): 0.6065755517 Argument of Perigee(rad): -2.740296764 Mean Anom(rad): -1.120597683 Af0(s): 0.0005856049438 Af1(s/s): 0 week: 363 ******** Week 363 almanac for PRN-15 ******** ID: 15 Health: 0 Eccentricity: 0.01663827896 Time of Applicability(s): 233472 Orbital Inclination(rad): 0.9426755358 Rate of Right Ascen(r/s): -7.988904198e-09 SQRT(A) (m 1/2): 5153.652344 Right Ascen at Week(rad): -1.673795872 Argument of Perigee(rad): 1.504890955 Mean Anom(rad): 1.527723525 Af0(s): 0.0003135285156 Af1(s/s): 3.637979e-12 week: 363 ******** Week 363 almanac for PRN-16 ******** ID: 16 Health: 0 Eccentricity: 0.01502466202 Time of Applicability(s): 233472 Orbital Inclination(rad): 0.9583988389 Rate of Right Ascen(r/s): -7.748894201e-09 SQRT(A) (m 1/2): 5153.605957 Right Ascen at Week(rad): 0.6784850208 Argument of Perigee(rad): 0.9318217982 Mean Anom(rad): -2.724375347 Af0(s): 0.0001831428589 Af1(s/s): 7.275958e-12 week: 363 ******** Week 363 almanac for PRN-17 ******** ID: 17 Health: 0 Eccentricity: 0.01261329651 Time of Applicability(s): 233472 Orbital Inclination(rad): 0.9586385234 Rate of Right Ascen(r/s): -7.897471818e-09 SQRT(A) (m 1/2): 5153.557129 Right Ascen at Week(rad): 1.695625512 Argument of Perigee(rad): -1.118106463 Mean Anom(rad): 2.469143189 Af0(s): -7.536743164e-05 Af1(s/s): -1.091394e-11 week: 363 ******** Week 363 almanac for PRN-18 ******** ID: 18 Health: 0 Eccentricity: 0.005797386169 Time of Applicability(s): 233472 Orbital Inclination(rad): 0.971779226 Rate of Right Ascen(r/s): -8.023191341e-09 SQRT(A) (m 1/2): 5153.587891 Right Ascen at Week(rad): 2.706620718 Argument of Perigee(rad): -2.867163267 Mean Anom(rad): 0.4829305583 Af0(s): -0.0003112674927 Af1(s/s): 1.091394e-11 week: 363 ******** Week 363 almanac for PRN-19 ******** ID: 19 Health: 0 Eccentricity: 0.01123523712 Time of Applicability(s): 233472 Orbital Inclination(rad): 0.957817604 Rate of Right Ascen(r/s): -7.931758961e-09 SQRT(A) (m 1/2): 5153.677246 Right Ascen at Week(rad): 1.739519983 Argument of Perigee(rad): 2.940237079 Mean Anom(rad): -2.022957388 Af0(s): 0.0005494285767 Af1(s/s): 0 week: 363 ******** Week 363 almanac for PRN-20 ******** ID: 20 Health: 0 Eccentricity: 0.002236366272 Time of Applicability(s): 233472 Orbital Inclination(rad): 0.9601305594 Rate of Right Ascen(r/s): -7.817468486e-09 SQRT(A) (m 1/2): 5153.707031 Right Ascen at Week(rad): -1.523664618 Argument of Perigee(rad): -1.964164653 Mean Anom(rad): -1.023602985 Af0(s): 5.577189941e-05 Af1(s/s): 2.182787e-11 week: 363 ******** Week 363 almanac for PRN-21 ******** ID: 21 Health: 0 Eccentricity: 0.0008010864258 Time of Applicability(s): 233472 Orbital Inclination(rad): 0.9631385998 Rate of Right Ascen(r/s): -7.943188008e-09 SQRT(A) (m 1/2): 5153.730469 Right Ascen at Week(rad): -2.529371784 Argument of Perigee(rad): -0.2655996356 Mean Anom(rad): -1.326258218 Af0(s): 0.0003248336304 Af1(s/s): 3.637979e-12 week: 363 ******** Week 363 almanac for PRN-22 ******** ID: 22 Health: 0 Eccentricity: 0.01204395294 Time of Applicability(s): 233472 Orbital Inclination(rad): 0.9578475645 Rate of Right Ascen(r/s): -7.748894201e-09 SQRT(A) (m 1/2): 5153.570801 Right Ascen at Week(rad): 0.6818421018 Argument of Perigee(rad): -0.9934671531 Mean Anom(rad): 3.116264745 Af0(s): -2.336390381e-05 Af1(s/s): 7.275958e-12 week: 363 ******** Week 363 almanac for PRN-23 ******** ID: 23 Health: 0 Eccentricity: 0.006061553955 Time of Applicability(s): 233472 Orbital Inclination(rad): 0.9882695194 Rate of Right Ascen(r/s): -7.680319916e-09 SQRT(A) (m 1/2): 5153.666504 Right Ascen at Week(rad): -2.569648517 Argument of Perigee(rad): -2.738075188 Mean Anom(rad): -0.6657368015 Af0(s): 0.0004959177002 Af1(s/s): 3.637979e-12 week: 363 ******** Week 363 almanac for PRN-24 ******** ID: 24 Health: 0 Eccentricity: 0.01794433594 Time of Applicability(s): 233472 Orbital Inclination(rad): 0.9351015056 Rate of Right Ascen(r/s): -8.091765626e-09 SQRT(A) (m 1/2): 5153.58252 Right Ascen at Week(rad): -0.5648891744 Argument of Perigee(rad): 1.137850099 Mean Anom(rad): 0.6870679728 Af0(s): -5.351087646e-05 Af1(s/s): 1.818989e-11 week: 363 ******** Week 363 almanac for PRN-25 ******** ID: 25 Health: 0 Eccentricity: 0.01290988922 Time of Applicability(s): 233472 Orbital Inclination(rad): 0.9476909339 Rate of Right Ascen(r/s): -7.886042771e-09 SQRT(A) (m 1/2): 5153.659668 Right Ascen at Week(rad): 0.5674991139 Argument of Perigee(rad): 1.159458031 Mean Anom(rad): -1.10000504 Af0(s): 0.0003436754883 Af1(s/s): -3.637979e-12 week: 363 ******** Week 363 almanac for PRN-26 ******** ID: 26 Health: 0 Eccentricity: 0.01101160049 Time of Applicability(s): 233472 Orbital Inclination(rad): 0.9285041898 Rate of Right Ascen(r/s): -8.068907531e-09 SQRT(A) (m 1/2): 5153.667969 Right Ascen at Week(rad): 0.4925786083 Argument of Perigee(rad): 0.7116094184 Mean Anom(rad): -1.920649933 Af0(s): -0.0002728301025 Af1(s/s): -3.637979e-12 week: 363 ******** Week 363 almanac for PRN-27 ******** ID: 27 Health: 0 Eccentricity: 0.01437902451 Time of Applicability(s): 233472 Orbital Inclination(rad): 0.9520831523 Rate of Right Ascen(r/s): -7.977475151e-09 SQRT(A) (m 1/2): 5153.619141 Right Ascen at Week(rad): 1.62277266 Argument of Perigee(rad): 0.8887418802 Mean Anom(rad): 2.626203572 Af0(s): -6.330864258e-05 Af1(s/s): -1.455192e-11 week: 363 ******** Week 363 almanac for PRN-28 ******** ID: 28 Health: 0 Eccentricity: 0.0004482269287 Time of Applicability(s): 233472 Orbital Inclination(rad): 0.9620660117 Rate of Right Ascen(r/s): -7.806039438e-09 SQRT(A) (m 1/2): 5153.749023 Right Ascen at Week(rad): -0.48150481 Argument of Perigee(rad): -0.1412254769 Mean Anom(rad): 0.1561499565 Af0(s): -0.0004514509155 Af1(s/s): 7.275958e-12 week: 363 ******** Week 363 almanac for PRN-29 ******** ID: 29 Health: 0 Eccentricity: 0.003445148468 Time of Applicability(s): 233472 Orbital Inclination(rad): 0.9612930292 Rate of Right Ascen(r/s): -7.886042771e-09 SQRT(A) (m 1/2): 5153.701172 Right Ascen at Week(rad): 1.712418782 Argument of Perigee(rad): 2.744994206 Mean Anom(rad): 2.480555168 Af0(s): -0.0002788594971 Af1(s/s): 7.275958e-12 week: 363 ******** Week 363 almanac for PRN-30 ******** ID: 30 Health: 0 Eccentricity: 0.008140087128 Time of Applicability(s): 233472 Orbital Inclination(rad): 0.9364077862 Rate of Right Ascen(r/s): -8.068907531e-09 SQRT(A) (m 1/2): 5153.683594 Right Ascen at Week(rad): -0.4653246083 Argument of Perigee(rad): -2.303281891 Mean Anom(rad): -0.492958733 Af0(s): 0.0001288783081 Af1(s/s): 1.455192e-11 week: 363 ******** Week 363 almanac for PRN-31 ******** ID: 31 Health: 0 Eccentricity: 0.01083278656 Time of Applicability(s): 233472 Orbital Inclination(rad): 0.9549174215 Rate of Right Ascen(r/s): -7.874613723e-09 SQRT(A) (m 1/2): 5153.518555 Right Ascen at Week(rad): -0.4317002438 Argument of Perigee(rad): 0.9388981085 Mean Anom(rad): -1.382535015 Af0(s): -0.0001258636108 Af1(s/s): 3.637979e-12 week: 363 ******** Week 363 almanac for PRN-32 ******** ID: 32 Health: 0 Eccentricity: 0.009367465973 Time of Applicability(s): 233472 Orbital Inclination(rad): 0.9677525264 Rate of Right Ascen(r/s): -7.737465153e-09 SQRT(A) (m 1/2): 5153.692383 Right Ascen at Week(rad): -1.512087482 Argument of Perigee(rad): -1.988584759 Mean Anom(rad): -3.094211149 Af0(s): -2.562492676e-05 Af1(s/s): 1.818989e-11 week: 363